GEFSSGP_500_meanwind_246.txt.gz
Wind_Speed
19 19 18 18 19 17 14 13 12 12 11 11 11 10 9 9 9 9 9 9 9 9 9 9 8 8 8 8 9 9 9 9 9 11 12 12 12 12 11 11 11 10 10 11 11 11 10 10 9
19 19 19 20 19 16 15 14 13 12 12 12 12 11 11 10 10 10 10 9 9 9 8 8 8 8 8 8 9 9 10 10 11 12 13 12 12 11 11 11 10 10 10 10 11 10 10 9 9
18 19 19 20 18 17 16 16 15 13 13 13 12 12 12 11 11 10 10 10 10 9 8 8 8 8 8 9 10 10 11 12 13 13 13 13 13 12 11 11 11 11 11 10 10 10 10 9 8
18 19 20 19 18 17 17 17 16 15 15 14 13 13 12 12 12 11 11 11 10 9 8 8 8 8 9 10 10 11 11 12 13 14 14 14 14 13 12 11 11 11 11 10 9 10 10 9 8
18 19 19 17 18 18 17 18 18 18 16 15 14 14 13 13 12 11 11 10 10 9 8 8 9 10 9 10 11 11 11 12 13 13 13 13 13 13 12 12 12 12 11 11 10 10 10 9 9
18 19 17 17 18 19 19 18 19 19 18 16 14 14 14 14 13 12 11 11 10 9 9 8 9 10 10 10 10 11 11 12 13 13 13 13 13 13 12 12 12 13 12 11 11 11 10 9 9
17 17 16 17 18 19 19 19 19 19 19 17 16 15 14 14 13 12 12 11 11 10 9 9 9 9 10 11 10 10 11 12 12 12 11 11 11 11 11 11 11 11 10 9 10 10 10 9 8
17 17 17 17 18 19 19 19 19 19 20 18 17 16 15 14 14 13 12 11 11 11 11 10 9 10 10 10 11 10 11 11 10 10 10 10 11 10 10 10 11 11 11 10 10 10 9 9 8
17 16 16 17 18 19 19 19 19 19 20 19 18 17 15 14 14 13 12 12 11 11 11 11 10 10 10 10 11 10 11 10 10 10 10 10 10 10 10 10 11 11 11 11 10 9 8 8 7
15 14 15 17 17 18 19 19 19 19 20 19 18 17 16 15 14 13 13 13 12 12 12 11 11 10 10 10 11 10 10 10 10 10 10 9 10 10 10 10 10 10 10 10 9 8 8 7 6
14 14 15 16 17 17 19 19 20 20 20 19 18 18 16 15 14 13 13 12 12 12 11 10 10 10 11 10 10 10 10 10 9 10 9 9 9 9 9 10 10 9 9 9 8 7 7 6 5
12 13 14 15 16 17 18 19 20 20 20 19 18 17 16 16 14 13 12 12 12 11 11 10 10 10 10 10 10 9 9 10 10 10 9 9 9 9 9 9 9 9 8 8 7 6 6 5 4
10 11 12 14 15 16 17 18 19 19 20 20 18 17 16 15 14 12 12 11 11 11 11 11 10 10 9 9 8 9 9 9 10 10 10 10 9 9 9 9 9 9 8 7 6 6 5 4 3
8 9 11 12 14 14 16 17 17 18 19 19 18 17 16 14 13 11 11 10 10 10 10 10 10 10 9 8 8 9 9 9 9 9 10 10 9 8 8 9 8 9 8 7 7 5 5 3 3
6 7 9 10 12 13 14 15 16 16 17 18 17 16 16 14 13 11 11 10 10 10 10 10 9 9 9 9 8 9 9 9 9 9 9 9 8 8 9 8 8 8 8 7 6 5 4 3 3
4 5 6 7 9 11 13 13 14 14 15 16 16 15 14 13 13 12 10 9 9 9 9 8 9 8 8 9 9 9 9 9 8 8 8 8 7 8 8 7 7 7 6 6 5 4 3 3 2
2 3 3 4 6 9 10 10 11 12 13 14 14 14 13 13 12 11 10 9 9 8 8 8 8 8 8 8 8 9 8 8 7 8 7 7 7 7 6 6 6 6 5 4 3 3 2 2 1
4 3 1 2 4 6 8 9 10 11 11 12 12 12 12 12 11 10 10 9 8 8 8 8 8 8 8 8 8 7 7 7 6 6 7 7 7 6 6 5 5 4 4 3 2 2 1 1 0
7 6 4 2 2 4 6 7 8 9 9 10 10 10 11 11 11 10 9 9 8 7 6 6 7 7 6 6 6 6 6 6 5 5 5 6 6 5 5 4 4 4 3 3 2 1 1 1 1
9 7 6 5 3 2 3 5 7 8 7 8 8 9 10 10 10 9 9 9 8 7 6 5 5 5 5 5 5 5 5 5 5 5 4 4 4 4 4 3 3 3 2 2 1 1 1 1 2
12 9 8 7 5 4 3 4 6 6 6 7 7 8 8 9 9 9 8 8 8 7 6 5 5 5 4 4 5 5 5 4 3 3 3 3 2 2 2 2 2 2 1 1 1 1 1 2 3
13 12 10 9 7 6 4 3 5 4 5 6 6 6 7 7 8 8 8 7 7 7 6 5 4 4 4 4 4 4 4 4 3 3 3 3 2 2 2 3 2 1 1 1 2 3 3 3 3
16 15 13 11 10 8 7 4 5 4 5 5 5 6 6 6 7 7 7 7 7 6 6 5 4 3 3 3 3 3 2 3 3 3 2 2 2 2 2 2 1 0 1 2 3 3 4 4 4
18 17 15 13 12 10 9 6 5 6 5 5 5 5 5 5 6 6 6 6 6 6 5 5 4 4 3 3 2 3 2 2 2 2 2 1 1 1 1 0 1 2 2 3 3 4 4 5 5
21 18 15 14 13 13 12 9 7 7 6 4 4 5 6 6 6 5 5 5 5 4 4 5 4 4 3 3 3 3 3 2 2 2 2 2 1 1 1 1 2 2 3 3 4 5 6 6 6
23 20 18 15 14 13 13 10 8 7 6 6 5 6 6 6 6 6 5 5 5 4 4 4 4 3 3 3 3 3 2 2 2 2 2 1 2 2 2 3 3 4 4 4 5 6 7 7 7
24 23 20 18 16 14 14 12 10 9 8 7 7 6 6 6 6 7 6 5 5 4 4 4 4 3 4 3 3 3 2 2 2 2 2 3 3 3 3 4 4 5 6 6 6 7 7 8 8
26 24 22 19 18 16 15 13 11 10 9 9 9 7 7 7 7 7 7 6 6 5 5 5 4 4 4 3 3 3 3 3 3 3 3 4 4 3 3 4 5 5 6 6 6 7 7 8 8
27 25 24 22 20 17 15 14 13 11 11 10 10 9 9 9 8 8 7 7 7 7 7 6 6 5 4 4 4 4 4 5 5 5 5 5 4 2 3 5 5 6 6 7 7 8 8 9 9
28 27 26 25 23 21 18 16 15 13 12 12 11 11 11 10 10 10 10 9 9 9 8 8 7 7 6 6 6 6 6 6 7 6 6 6 5 5 5 6 7 7 8 8 9 9 9 10 10

GEFSSGP_500_meanwind_252.txt.gz
Wind_Speed
18 18 18 19 19 15 11 9 9 9 7 7 6 6 6 6 7 5 4 5 5 4 4 4 4 4 4 4 5 5 5 6 7 7 7 8 9 9 8 9 9 10 10 10 10 10 9 9 9
18 18 20 21 16 12 11 11 10 8 8 7 7 7 6 7 7 6 5 6 5 5 5 5 5 5 4 4 5 5 5 6 6 7 8 8 8 8 8 9 9 9 9 10 10 9 9 9 9
18 20 23 19 13 11 11 11 11 9 8 8 8 8 6 7 7 7 7 7 5 6 6 5 5 4 4 4 5 5 5 5 5 7 8 8 9 8 8 9 9 9 9 9 9 8 8 8 8
20 24 22 16 13 12 12 12 11 10 10 9 9 9 8 7 7 7 7 7 7 7 6 5 5 5 5 5 5 4 4 5 6 8 9 9 9 8 8 8 9 9 8 8 8 7 7 7 7
23 25 19 15 14 14 14 13 13 11 12 11 10 10 10 9 9 8 7 8 7 7 7 6 6 6 6 6 5 5 5 6 8 9 10 9 9 9 8 9 8 8 8 7 7 7 7 7 7
25 22 15 14 15 14 13 13 13 12 12 12 12 11 12 11 10 10 10 8 8 8 7 7 7 7 7 6 6 5 6 7 8 9 9 9 9 9 8 8 8 8 8 8 7 7 7 7 6
21 18 13 13 14 14 14 14 14 13 12 12 13 12 12 12 12 11 10 10 10 9 9 8 8 7 7 6 6 7 7 7 7 8 8 8 9 9 8 8 8 9 8 8 7 7 7 7 6
17 14 10 11 13 13 14 14 14 14 14 13 13 13 12 12 12 12 12 11 11 11 10 9 8 7 7 6 7 7 7 6 6 7 8 8 8 8 7 8 8 8 8 7 7 6 6 6 5
14 12 9 10 13 14 15 15 15 15 15 14 14 13 13 13 13 12 12 12 11 11 10 10 9 8 7 7 7 7 6 6 6 7 7 7 8 8 7 8 8 8 8 8 7 6 5 5 4
10 9 9 10 12 14 15 15 16 15 15 15 15 14 14 14 13 13 13 13 12 11 10 9 9 9 8 7 7 7 6 6 6 7 7 7 7 7 6 6 7 8 7 6 7 6 5 4 4
8 9 11 11 13 15 16 17 16 15 16 15 15 15 14 14 14 14 13 13 12 11 10 9 8 8 7 7 7 6 6 6 6 6 7 6 6 7 6 6 7 7 6 7 5 5 5 4 4
8 11 12 12 13 15 15 16 16 16 16 16 16 16 15 15 15 14 13 12 12 11 10 9 8 8 7 7 6 5 5 5 6 6 6 6 6 5 6 6 5 6 6 6 5 4 4 3 3
7 10 12 13 12 13 14 15 16 17 17 16 15 15 15 15 14 14 13 12 11 11 10 9 9 8 7 7 6 6 5 6 6 5 5 5 5 5 6 6 6 6 6 6 5 4 4 3 2
5 6 10 12 12 13 14 15 16 16 16 16 16 16 16 15 14 13 13 12 11 10 10 10 9 9 9 7 7 7 7 6 6 6 5 4 5 6 5 6 6 6 6 5 5 4 4 3 2
3 5 8 10 12 12 12 14 15 15 16 16 16 17 16 15 14 13 13 12 11 10 9 10 9 9 9 8 8 8 8 7 7 8 6 5 5 5 6 6 6 6 5 5 4 4 4 3 2
2 3 4 8 11 11 11 12 13 14 15 15 16 16 16 16 15 13 13 12 11 10 9 9 9 9 9 8 8 7 8 7 7 7 7 7 6 5 5 5 5 5 4 4 3 3 3 2 0
2 1 2 4 7 9 10 11 12 13 13 14 15 15 16 15 15 14 13 12 11 10 9 9 8 8 8 7 7 7 7 7 6 7 7 6 5 4 4 4 4 4 3 3 2 2 2 1 1
2 3 4 3 3 6 8 10 12 14 13 13 13 14 14 15 15 15 13 12 11 10 9 9 8 7 7 7 7 7 8 7 6 6 6 5 5 4 4 3 2 2 2 2 2 1 1 1 2
5 5 5 5 2 2 5 8 11 13 13 13 12 13 14 14 14 14 14 13 12 11 10 9 8 7 7 7 6 6 6 6 6 6 5 5 4 4 2 2 2 2 3 2 1 1 1 2 2
8 7 6 6 5 3 3 6 7 11 12 12 11 12 12 12 13 13 13 13 12 11 10 9 8 7 6 6 6 6 6 6 6 6 5 5 5 4 3 2 2 3 3 2 2 2 3 3 3
10 9 6 6 6 6 6 8 7 7 9 10 9 9 9 9 10 11 11 12 12 11 10 10 9 7 6 6 6 6 6 6 5 5 5 5 4 4 3 3 2 2 3 3 4 4 4 4 4
12 10 9 8 8 7 8 12 9 7 8 9 9 9 8 7 8 9 10 11 11 11 10 10 9 8 7 6 6 6 5 5 5 5 4 4 4 4 3 3 2 3 3 4 5 5 6 6 6
15 13 11 9 10 10 9 11 10 8 7 8 9 8 8 6 6 8 9 9 10 10 10 10 9 9 7 6 6 5 5 5 5 5 4 4 4 4 3 3 4 4 4 5 5 6 6 7 7
17 13 12 11 12 14 11 11 13 10 10 10 8 7 7 6 6 6 7 7 8 9 9 9 9 8 8 7 6 6 6 5 5 5 5 4 4 4 4 4 5 5 6 6 7 7 7 7 7
17 14 13 13 13 13 10 10 13 13 11 10 9 8 7 7 6 5 6 7 7 7 8 8 8 8 7 7 6 6 6 6 6 6 6 5 5 6 6 6 6 6 7 8 8 8 8 8 9
20 17 15 14 13 14 12 10 11 14 12 11 10 9 9 8 8 7 6 6 7 7 7 7 7 7 7 6 6 6 6 6 6 6 6 6 6 7 7 7 7 7 8 9 9 9 9 10 10
20 19 16 16 16 15 13 11 12 14 13 12 11 11 10 10 9 8 7 7 7 7 7 7 7 7 7 6 6 6 6 6 6 7 7 7 7 7 7 7 8 8 9 10 10 10 10 11 11
21 19 19 20 18 16 14 14 13 14 13 12 13 12 11 10 10 9 7 7 8 8 7 7 7 7 8 7 7 6 6 6 6 7 7 8 8 8 8 8 8 9 9 9 9 10 10 10 11
22 22 22 21 19 16 15 16 14 15 13 14 16 14 12 11 11 10 9 7 8 8 8 8 7 8 8 8 8 7 7 7 7 7 7 7 8 8 9 8 8 9 9 9 10 10 10 11 11
24 23 22 22 22 20 17 17 13 15 15 16 16 15 13 12 11 10 10 10 10 10 10 9 9 9 9 9 9 8 8 8 7 7 7 8 9 10 10 9 9 9 10 10 10 10 11 12 12

GEFSSGP_500_meanwind_258.txt.gz
Wind_Speed
19 19 17 18 19 19 18 18 17 15 14 12 11 10 9 10 9 7 7 7 7 6 6 6 6 6 5 5 5 6 6 6 6 7 7 6 7 8 8 8 10 11 10 10 10 9 9 9 9
20 20 19 19 21 20 19 18 17 16 15 13 12 10 10 11 10 8 7 8 7 7 6 7 7 6 6 5 5 5 6 6 6 7 7 7 7 8 8 9 10 10 10 9 9 9 9 8 9
20 20 20 20 21 20 20 19 18 16 15 14 12 11 11 11 11 10 9 8 8 8 8 8 8 7 6 6 6 6 6 6 6 7 7 7 7 8 9 9 9 9 9 9 8 8 8 8 8
20 20 21 22 21 21 21 20 19 17 16 15 14 12 11 10 10 10 9 8 8 8 8 8 8 8 7 6 7 7 6 5 6 7 7 7 7 8 9 9 8 8 8 8 8 7 7 7 7
20 20 21 22 21 21 21 21 20 18 16 16 15 13 12 11 10 10 9 9 9 9 8 9 9 9 8 8 7 7 6 5 5 7 8 7 8 8 8 8 8 7 7 7 7 7 6 7 6
19 20 21 22 20 21 20 20 19 18 17 16 16 15 13 12 12 11 10 11 10 10 9 9 9 10 9 8 7 7 6 5 6 6 7 8 8 8 8 8 7 7 7 7 6 6 6 6 6
18 20 21 21 20 20 20 20 19 19 18 17 16 16 15 13 13 12 12 12 11 11 10 10 10 10 10 9 7 6 5 5 6 7 8 8 8 8 8 7 7 7 6 6 6 6 7 6 5
17 19 21 21 20 20 20 20 19 19 18 17 16 16 16 15 15 15 13 13 12 12 11 11 10 10 10 9 8 8 7 7 8 8 8 8 8 7 7 7 7 6 6 6 6 6 6 6 5
16 18 19 20 19 19 20 20 20 19 19 18 18 17 16 16 16 16 15 13 13 13 12 11 11 10 10 10 10 9 8 9 9 9 8 8 8 7 7 7 7 6 6 6 6 5 5 6 5
17 17 17 18 18 19 20 21 21 20 20 19 18 17 16 16 16 16 15 14 14 13 12 11 11 10 9 9 9 9 9 8 8 8 8 8 8 8 8 7 6 6 6 6 6 5 5 5 4
16 16 16 17 18 19 20 20 20 20 20 19 19 18 18 17 16 15 15 15 15 14 13 12 11 11 10 9 9 9 8 8 8 9 9 9 9 8 8 7 7 7 7 6 6 5 4 4 4
14 16 16 16 17 19 19 20 20 19 19 19 19 18 18 17 16 15 15 15 14 14 14 13 13 12 11 10 9 9 8 8 7 8 8 8 7 7 7 7 7 6 6 5 5 5 4 4 3
13 15 15 14 16 18 18 19 20 19 19 19 18 18 17 17 16 15 15 14 14 14 13 12 12 12 11 11 10 10 9 8 7 8 8 7 6 6 7 6 6 6 5 5 4 4 3 3 2
10 12 13 13 14 17 18 18 18 18 18 18 18 17 17 17 16 15 15 14 14 13 13 12 11 11 11 11 10 10 9 8 7 7 7 7 6 7 6 6 6 6 5 4 4 4 3 3 3
7 9 9 10 12 14 15 16 17 16 16 17 17 18 17 17 16 15 15 14 14 13 13 12 11 10 10 10 10 10 10 8 8 7 6 7 8 7 6 6 6 6 5 4 4 3 3 2 2
5 6 7 8 9 10 12 14 15 15 15 16 16 17 17 17 16 15 14 13 13 12 12 12 11 10 9 9 9 10 10 9 8 7 6 7 8 7 7 6 5 5 4 4 4 3 3 2 2
3 4 5 6 7 8 9 10 13 14 14 14 15 16 16 16 15 15 15 14 13 12 12 11 11 11 10 9 9 8 8 8 8 7 7 7 7 7 7 6 5 4 3 3 3 2 2 1 1
2 2 3 4 4 5 6 8 10 11 12 13 13 14 14 15 15 15 14 14 13 12 12 11 11 11 11 9 9 9 8 8 8 8 7 7 6 6 6 6 5 4 3 3 3 2 1 1 1
1 1 4 4 4 4 5 6 7 9 9 10 11 12 12 14 15 15 14 13 13 12 12 11 11 10 10 9 9 8 8 7 7 7 7 6 5 5 5 5 3 3 3 2 1 1 1 2 2
5 3 5 8 6 6 5 5 7 7 7 8 9 10 11 12 14 14 13 13 12 12 12 11 11 10 10 9 8 8 8 7 7 6 6 5 5 5 4 3 3 3 3 2 2 1 2 3 3
8 5 6 8 7 7 5 6 6 5 7 8 8 9 10 12 13 12 13 13 13 11 11 11 11 10 10 9 8 7 7 7 6 6 5 5 5 5 4 3 3 3 3 2 2 2 3 3 3
11 7 8 9 9 8 8 8 8 5 6 7 7 7 8 10 10 10 11 12 12 11 10 10 10 9 9 8 7 7 6 6 6 5 4 5 5 4 4 3 2 2 2 2 2 2 3 3 3
13 10 11 11 11 10 9 8 8 8 7 6 5 5 7 7 7 8 9 10 10 10 10 9 8 8 8 8 7 6 6 5 5 5 4 4 4 3 3 3 3 2 2 2 2 2 3 3 4
15 15 13 12 13 12 9 8 8 10 8 4 3 4 5 6 6 6 6 7 8 9 9 8 7 7 7 7 7 7 6 5 4 4 4 4 4 3 3 3 3 2 2 2 3 3 3 3 4
18 17 16 15 14 12 9 8 7 9 7 4 2 3 5 6 5 5 5 5 6 7 7 7 6 5 5 6 6 6 6 5 5 4 4 4 3 3 3 3 3 2 2 3 3 4 4 4 5
21 19 18 16 14 13 12 10 8 9 8 7 4 3 4 5 5 4 5 4 4 5 6 6 6 5 5 5 5 5 5 4 4 4 4 3 3 3 3 2 3 3 3 3 4 4 4 5 5
21 20 19 17 15 14 14 13 10 9 8 7 5 6 6 6 5 4 4 4 4 4 5 5 4 4 4 4 5 5 4 4 4 4 4 4 3 3 3 3 3 3 4 4 4 4 5 5 5
22 20 20 20 18 17 15 13 11 9 8 6 6 7 6 7 7 5 4 4 4 4 4 3 3 4 4 4 4 4 4 4 4 4 4 4 3 3 3 3 3 4 4 5 5 5 5 5 5
23 23 22 22 20 19 18 15 13 11 10 9 7 7 8 8 8 6 6 5 5 4 4 3 3 4 4 4 4 4 4 4 4 4 4 4 3 3 3 3 4 5 5 5 5 5 5 5 6
25 24 24 24 23 22 22 20 16 15 13 11 9 7 8 9 8 9 7 6 6 6 5 5 5 5 5 6 5 5 5 6 5 5 5 4 4 3 3 4 5 5 5 5 5 5 5 6 7

GEFSSGP_500_meanwind_264.txt.gz
Wind_Speed
18 18 17 17 17 15 15 14 13 13 12 10 10 9 9 8 7 6 6 6 6 5 5 6 7 7 7 7 8 7 7 6 6 7 7 7 6 6 8 8 8 8 8 8 8 8 7 8 8
18 17 17 18 17 16 16 16 16 15 13 12 11 11 10 9 8 8 7 6 6 6 6 8 8 8 8 8 8 7 7 6 7 7 7 7 6 6 8 8 8 8 8 7 7 7 7 7 7
17 17 17 17 18 17 18 18 17 15 14 13 12 12 11 10 9 8 8 7 7 7 7 8 8 8 8 8 8 8 7 7 7 7 7 6 7 8 8 8 7 7 7 7 6 6 7 7 6
17 18 18 18 18 18 19 19 18 17 15 14 13 13 11 10 10 9 9 8 7 7 8 8 8 8 8 8 8 8 8 8 8 8 7 7 8 8 8 8 8 7 7 6 6 6 6 6 5
18 19 18 18 19 19 19 19 19 18 17 15 14 13 12 11 9 9 9 8 7 7 8 8 8 8 8 8 8 8 8 8 7 7 7 8 8 8 8 7 7 7 7 7 6 6 5 6 5
19 19 19 19 20 20 20 20 20 19 18 15 14 13 12 11 10 10 9 9 8 8 8 7 7 7 8 8 7 8 8 7 7 7 7 7 8 8 8 7 7 7 7 6 6 6 6 5 4
19 19 19 19 20 20 21 21 20 19 17 17 15 14 13 12 11 11 10 10 9 9 8 8 8 8 8 8 7 7 7 7 7 7 7 7 7 8 8 8 7 7 6 6 6 6 6 5 4
18 18 19 19 20 20 21 21 21 19 18 17 17 16 15 13 13 12 11 11 10 10 10 9 8 8 8 8 8 8 8 7 7 8 7 7 7 8 7 7 7 7 6 6 5 5 5 5 4
16 18 18 19 20 20 21 22 21 20 19 18 17 17 16 14 13 13 12 12 11 11 10 10 9 9 8 8 8 8 8 7 7 7 8 7 7 7 8 7 7 6 6 5 5 5 4 4 3
15 16 18 19 19 19 20 21 21 19 19 18 17 17 16 15 13 13 13 13 13 12 12 11 10 9 9 9 8 7 8 8 7 8 8 8 8 8 8 7 7 6 5 5 4 4 4 3 3
15 16 17 18 18 18 19 20 20 19 19 18 17 16 15 15 15 14 13 13 13 13 12 11 11 10 10 9 8 7 7 7 7 8 8 8 8 7 7 6 5 5 5 5 5 4 4 3 3
14 15 16 17 17 18 18 19 19 19 19 17 17 16 16 15 14 14 14 13 13 13 12 12 10 10 10 9 9 8 7 7 7 7 8 8 8 7 6 6 5 5 5 5 5 4 4 3 3
11 13 14 15 16 17 17 18 18 18 18 17 16 16 15 14 14 14 14 13 13 12 12 11 10 10 10 9 9 8 7 7 7 8 8 7 7 7 6 5 5 5 5 5 4 4 3 2 2
10 11 12 13 14 15 17 17 17 17 17 17 16 15 15 14 14 14 14 13 13 12 11 11 10 9 9 9 8 8 8 8 8 7 7 7 7 6 6 5 4 4 5 4 4 3 3 2 1
7 8 10 11 12 13 14 15 15 15 15 15 15 15 15 13 13 13 13 13 12 12 11 10 9 8 8 8 8 8 8 7 7 7 7 6 6 5 5 4 4 4 4 4 3 3 2 1 1
6 7 8 9 11 12 12 13 13 12 13 14 14 14 14 14 13 13 13 12 12 11 11 10 9 8 7 7 7 8 7 7 7 6 6 6 5 4 3 3 4 4 3 2 2 2 1 1 1
4 5 6 8 9 10 10 10 10 10 10 11 12 13 13 13 13 13 13 12 12 11 11 10 9 8 8 7 7 7 7 7 7 6 6 5 5 4 3 3 3 3 2 2 2 2 2 2 2
2 3 3 5 6 7 8 8 8 8 8 8 10 11 12 12 12 13 12 12 12 11 10 10 9 8 8 7 7 6 6 6 6 6 6 5 5 4 3 3 2 2 1 1 1 2 2 2 2
4 2 2 3 3 5 6 6 6 6 6 6 7 8 9 10 11 11 12 11 11 11 10 9 9 8 8 7 6 6 6 6 6 5 6 6 4 3 3 3 2 1 1 1 1 1 2 2 2
6 4 2 1 3 5 5 5 5 6 6 4 4 6 6 8 8 9 10 10 10 10 10 9 8 7 6 6 6 6 6 6 5 4 4 4 3 3 3 3 2 1 1 1 1 1 1 2 3
9 7 5 4 4 4 4 4 5 5 5 5 4 4 5 6 7 8 9 9 9 9 8 8 7 7 7 7 6 6 6 5 5 4 3 2 1 1 1 1 1 1 2 2 2 2 2 3 3
11 9 8 7 6 5 5 4 5 5 4 5 4 3 3 4 5 6 7 7 7 7 8 7 7 6 7 7 6 6 5 5 4 4 3 2 1 0 1 0 0 1 2 2 3 3 3 3 3
14 13 12 11 9 8 6 6 5 4 4 4 3 3 3 3 4 5 6 6 6 6 6 6 6 6 6 6 6 5 5 5 4 3 3 2 2 1 1 1 1 1 2 2 2 3 3 3 3
17 16 15 14 12 11 9 9 6 4 3 4 3 2 2 3 4 4 5 5 5 4 4 5 5 5 5 4 4 4 4 3 3 3 3 3 3 2 2 2 1 1 2 2 2 2 3 4 4
20 18 17 15 14 12 11 10 7 6 4 4 4 3 2 2 3 4 5 5 4 3 3 3 3 3 3 3 3 3 3 3 3 3 3 3 3 3 3 2 2 2 2 3 3 3 3 4 5
21 20 19 18 16 14 13 12 8 7 6 5 5 5 4 4 4 5 5 5 5 4 4 4 3 2 2 2 1 2 3 3 3 3 3 3 3 3 3 2 2 2 3 3 3 4 4 5 6
23 22 21 21 19 18 17 13 10 8 7 7 7 7 6 6 5 5 5 6 7 6 6 5 4 4 3 3 2 2 2 3 3 4 3 3 3 3 3 3 2 3 3 4 4 5 6 7 7
25 24 23 23 22 21 19 15 11 10 9 8 7 8 8 7 6 6 6 7 7 7 7 6 5 5 5 4 4 3 3 3 5 5 5 4 4 4 3 3 3 3 4 4 5 6 6 6 7
27 26 25 25 24 23 21 18 13 12 11 10 9 9 9 9 7 7 8 8 8 8 8 6 5 5 6 5 5 5 5 5 5 6 6 6 5 4 4 4 5 5 5 6 6 7 7 7 8
29 28 27 26 25 24 23 19 15 13 12 11 10 9 9 9 9 9 9 10 10 10 9 7 7 7 7 6 6 5 5 6 6 6 7 6 5 5 5 5 6 6 6 6 7 8 8 8 9